K14-Fa-1c, Netherlands

12:16 PM CET on December 05, 2016 (GMT +0100)
K14-fa-1c Sea

Weather History for EHKV - January, 2014

Change the Weather History Date:

Thursday, January 23, 2014

  Actual Average (EHVL) Record (EHVL)
Temperature  
Mean Temperature 44 °F -  
Max Temperature 48 °F 41 °F 48 °F (2008)
Min Temperature 41 °F 36 °F 23 °F (2013)
Degree Days  
Heating Degree Days 20    
Moisture  
Dew Point 41 °F    
Average Humidity 83    
Maximum Humidity 93    
Minimum Humidity 70    
Precipitation  
Precipitation 0.00 in - - ()
Sea Level Pressure  
Sea Level Pressure 29.78 in    
Wind  
Wind Speed 18 mph ()    
Max Wind Speed 31 mph    
Max Gust Speed 38 mph    
Visibility 6.6 miles    
Events Rain    
Averages and records for this station are not official NWS values.
T = Trace of Precipitation, MM = Missing Value Source: Averaged Metar Reports

Daily Weather History Graph

Daily Weather History Graph

Search for Another Location

Airport or City:

Trip Planner

Search our weather history database for the weather conditions in past years. The results will help you decide how hot, cold, wet, or windy it might be!

Date:

Astronomy

Jan. 23, 2014 Rise Set
Actual Time 8:43 AM CET 5:11 PM CET
Civil Twilight 8:04 AM CET 5:51 PM CET
Nautical Twilight 7:21 AM CET 6:34 PM CET
Astronomical Twilight 6:40 AM CET 7:15 PM CET
Moon 12:27 AM CET (1/23) 11:06 AM CET (1/23)
Length of Visible Light 9h 46m
Length of Day
8h 28m
Waning Gibbous, 58% of the Moon is Illuminated
Jan 23
Waning Gibbous
Jan 24
Last Quarter
Jan 30
New
Feb 6
First Quarter
Feb 15
Full

Hourly Weather History & Observations

Time (CET) Temp. Windchill Dew Point Humidity Pressure Visibility Wind Dir Wind Speed Gust Speed Precip Events Conditions
12:00 AM 46 °F - 44 °F 91% 29.85 in 4 mi SSW 17.9 mph - - Rain Drizzle
12:25 AM 46.4 °F 38.5 °F 44.6 °F 93% 29.83 in 4.3 mi SSW 21.9 mph - N/A   Drizzle
12:55 AM 46.4 °F 38.5 °F 44.6 °F 93% 29.83 in 4.3 mi SSW 21.9 mph - N/A Rain Light Rain
1:00 AM 47 °F - 44 °F 86% 29.85 in 5 mi SSW 17.9 mph - - Rain Light Rain
1:25 AM 46.4 °F 39.0 °F 44.6 °F 93% 29.83 in 4.3 mi South 19.6 mph - N/A Rain Rain
1:55 AM 46.4 °F 38.7 °F 44.6 °F 93% 29.83 in 3.7 mi SSW 20.7 mph - N/A Rain Rain
2:00 AM 47 °F - 45 °F 88% 29.84 in 4 mi SSW 17.9 mph - - Rain Heavy Rain
2:25 AM 48.2 °F - 44.6 °F 87% 29.83 in 4.3 mi SSW 19.6 mph - N/A Rain Light Rain
2:55 AM 48.2 °F - 44.6 °F 87% 29.83 in 5.6 mi SSW 20.7 mph - N/A   Mostly Cloudy
3:00 AM 47 °F - 44 °F 86% 29.85 in 6 mi SSW 15.7 mph - - Rain Rain
3:25 AM 48.2 °F - 44.6 °F 87% 29.83 in 5.6 mi South 18.4 mph - N/A   Mostly Cloudy
3:55 AM 48.2 °F - 44.6 °F 87% 29.83 in 5.0 mi South 18.4 mph - N/A   Mostly Cloudy
4:00 AM 48 °F - 44 °F 83% 29.85 in 4 mi South 17.9 mph - -   Mist
4:25 AM 48.2 °F - 44.6 °F 87% 29.83 in 4.3 mi South 18.4 mph - N/A   Mostly Cloudy
4:55 AM 48.2 °F - 44.6 °F 87% 29.83 in 3.1 mi South 18.4 mph - N/A Rain Light Rain
5:00 AM 47 °F - 44 °F 85% 29.84 in 4 mi South 15.7 mph - - Rain Light Rain Showers
5:25 AM 46.4 °F 39.0 °F 44.6 °F 93% 29.83 in 4.3 mi South 19.6 mph - N/A   Mostly Cloudy
5:55 AM 48.2 °F - 44.6 °F 87% 29.83 in 4.3 mi South 19.6 mph - N/A   Mostly Cloudy
6:00 AM 47 °F - 45 °F 88% 29.84 in 4 mi South 15.7 mph - - Rain Rain
6:25 AM 48.2 °F - 44.6 °F 87% 29.83 in 5.6 mi SSW 19.6 mph - N/A   Mostly Cloudy
6:55 AM 48.2 °F - 42.8 °F 82% 29.83 in 6.2 mi SSW 18.4 mph - N/A   Mostly Cloudy
7:00 AM 47 °F - 43 °F 81% 29.83 in 14 mi SSW 15.7 mph - -   Partly Cloudy
7:25 AM 48.2 °F - 44.6 °F 87% 29.80 in 5.0 mi SSW 18.4 mph - N/A   Mostly Cloudy
7:55 AM 48.2 °F - 44.6 °F 87% 29.80 in 6.2 mi SSW 17.3 mph - N/A   Mostly Cloudy
8:00 AM 48 °F - 45 °F 84% 29.82 in 6 mi SSW 13.4 mph - -   Mist
8:25 AM 48.2 °F - 44.6 °F 87% 29.80 in 6.2 mi SSW 18.4 mph - N/A   Mostly Cloudy
8:55 AM 48.2 °F - 44.6 °F 87% 29.80 in 6.2 mi SW 16.1 mph - N/A   Mostly Cloudy
9:00 AM 47 °F - 44 °F 86% 29.83 in 9 mi SW 13.4 mph - -   Overcast
9:25 AM 48.2 °F - 42.8 °F 82% 29.80 in 6.2 mi SW 16.1 mph - N/A   Mostly Cloudy
9:55 AM 46.4 °F 40.4 °F 44.6 °F 93% 29.80 in 6.2 mi SW 13.8 mph - N/A   Partly Cloudy
10:00 AM 47 °F - 44 °F 85% 29.82 in 9 mi SW 11.2 mph - -   Overcast
10:25 AM 46.4 °F 40.1 °F 42.8 °F 87% 29.80 in 6.2 mi WSW 15.0 mph - N/A   Scattered Clouds
10:55 AM 48.2 °F - 42.8 °F 82% 29.80 in 6.2 mi WSW 16.1 mph - N/A   Mostly Cloudy
11:00 AM 47 °F - 44 °F 83% 29.81 in 11 mi WSW 13.4 mph - -   Overcast
11:25 AM 46.4 °F 38.7 °F 42.8 °F 87% 29.80 in 6.2 mi WSW 20.7 mph - N/A   Mostly Cloudy
11:55 AM 46.4 °F 39.8 °F 42.8 °F 87% 29.80 in 6.2 mi SW 16.1 mph - N/A   Mostly Cloudy
12:00 PM 47 °F - 42 °F 78% 29.79 in 14 mi SW 13.4 mph - - Rain Rain
12:25 PM 48.2 °F - 42.8 °F 82% 29.77 in 6.2 mi SW 16.1 mph - N/A   Partly Cloudy
12:55 PM 48.2 °F - 41.0 °F 76% 29.77 in 6.2 mi SW 16.1 mph - N/A   Partly Cloudy
1:00 PM 48 °F - 41 °F 70% 29.78 in 25 mi SW 13.4 mph - -   Partly Cloudy
1:25 PM 48.2 °F - 41.0 °F 76% 29.74 in 6.2 mi SW 17.3 mph - N/A   Partly Cloudy
1:55 PM 48.2 °F - 41.0 °F 76% 29.74 in 6.2 mi SW 19.6 mph - N/A   Mostly Cloudy
2:00 PM 48 °F - 41 °F 70% 29.75 in 19 mi SW 15.7 mph - -   Overcast
2:25 PM 48.2 °F - 41.0 °F 76% 29.71 in 6.2 mi SW 20.7 mph - N/A   Overcast
2:55 PM 48.2 °F - 41.0 °F 76% 29.71 in 6.2 mi SW 19.6 mph - N/A   Mostly Cloudy
3:00 PM 48 °F - 42 °F 71% 29.72 in 19 mi SW 17.9 mph - -   Overcast
3:25 PM 46.4 °F 38.1 °F 41.0 °F 81% 29.71 in 6.2 mi WSW 24.2 mph - N/A   Mostly Cloudy
3:55 PM 44.6 °F 35.7 °F 41.0 °F 87% 29.71 in 3.1 mi West 24.2 mph - N/A Rain Rain Showers
4:00 PM 45 °F - 39 °F 74% 29.71 in 5 mi West 20.1 mph - - Rain Light Rain Showers
4:25 PM 42.8 °F 32.1 °F 39.2 °F 87% 29.68 in 6.2 mi West 31.1 mph - N/A   Mostly Cloudy
4:55 PM 42.8 °F 32.3 °F 37.4 °F 81% 29.71 in 6.2 mi West 29.9 mph - N/A Rain Light Rain
5:00 PM 42 °F - 38 °F 81% 29.71 in 7 mi West 26.8 mph - - Rain Rain Showers
5:25 PM 41.0 °F 30.7 °F 37.4 °F 87% 29.71 in 5.0 mi West 25.3 mph - N/A   Mostly Cloudy
5:55 PM 42.8 °F 32.9 °F 37.4 °F 81% 29.71 in 3.7 mi WNW 26.5 mph 38.0 mph N/A Rain Light Rain Showers
6:00 PM 43 °F - 38 °F 77% 29.72 in 6 mi WNW 24.6 mph - - Rain Light Rain Showers
6:25 PM 42.8 °F 33.3 °F 37.4 °F 81% 29.71 in 6.2 mi WNW 24.2 mph - N/A   Mostly Cloudy
6:55 PM 42.8 °F 33.8 °F 37.4 °F 81% 29.71 in 6.2 mi WNW 21.9 mph - N/A   Mostly Cloudy
7:00 PM 43 °F - 36 °F 70% 29.74 in 19 mi WNW 17.9 mph - - Rain Rain
7:25 PM 42.8 °F 33.5 °F 37.4 °F 81% 29.71 in 6.2 mi WNW 23.0 mph - N/A   Mostly Cloudy
7:55 PM 42.8 °F 34.0 °F 35.6 °F 76% 29.74 in 6.2 mi WNW 20.7 mph - N/A   Mostly Cloudy
8:00 PM 42 °F - 36 °F 74% 29.75 in 10 mi WNW 17.9 mph - -   Scattered Clouds
8:25 PM 42.8 °F 34.3 °F 35.6 °F 76% 29.74 in 6.2 mi WNW 19.6 mph - N/A   Mostly Cloudy
8:55 PM 41.0 °F 32.2 °F 37.4 °F 87% 29.74 in - WNW 18.4 mph - N/A   Mostly Cloudy
9:00 PM 41 °F - 36 °F 77% 29.77 in 3 mi WNW 15.7 mph - - Rain Rain Showers
9:25 PM 41.0 °F 31.9 °F 35.6 °F 81% 29.77 in 6.2 mi WNW 19.6 mph - N/A   Mostly Cloudy
9:55 PM 42.8 °F 33.8 °F 35.6 °F 76% 29.77 in 6.2 mi WNW 21.9 mph - N/A   Mostly Cloudy
10:00 PM 43 °F - 36 °F 70% 29.79 in 15 mi WNW 17.9 mph - - Rain Rain Showers
10:25 PM 42.8 °F 33.5 °F 35.6 °F 76% 29.77 in 6.2 mi WNW 23.0 mph - N/A   Mostly Cloudy
10:55 PM 41.0 °F 31.6 °F 37.4 °F 87% 29.77 in 3.7 mi WNW 20.7 mph - N/A   Mostly Cloudy
11:00 PM 41 °F - 37 °F 80% 29.80 in 4 mi WNW 17.9 mph - - Rain Light Rain Showers
11:25 PM 41.0 °F 31.6 °F 37.4 °F 87% 29.77 in 5.6 mi WNW 20.7 mph - N/A Rain Light Rain
11:55 PM 41.0 °F 30.9 °F 37.4 °F 87% 29.77 in 6.2 mi WNW 24.2 mph - N/A   Mostly Cloudy